Time,TemperatureF,DewpointF,PressureIn,WindDirection,WindDirectionDegrees,WindSpeedMPH,WindSpeedGustMPH,Humidity,HourlyPrecipIn,Conditions,Clouds,dailyrainin,SolarRadiationWatts/m^2,SoftwareType,DateUTC
2013-05-28 00:01:00,41.0,39.0,-100.00,SW,223,10.0,16.0,92,0.00,,,0.13,1.000000,,2013-05-28 07:01:00,
2013-05-28 00:11:00,41.0,39.0,-100.00,SW,223,10.0,16.0,92,0.00,,,0.13,1.000000,,2013-05-28 07:11:00,
2013-05-28 00:21:00,41.0,39.0,-100.00,SW,223,10.0,16.0,92,0.00,,,0.13,1.000000,,2013-05-28 07:21:00,
2013-05-28 00:52:00,41.0,40.0,-100.00,SW,216,8.0,14.0,95,0.00,,,-99.99,1.000000,,2013-05-28 07:52:00,
2013-05-28 01:02:00,41.0,40.0,-100.00,SW,216,8.0,14.0,95,0.00,,,-99.99,1.000000,,2013-05-28 08:02:00,
2013-05-28 01:11:00,41.0,40.0,-100.00,SW,216,8.0,14.0,95,0.00,,,-99.99,1.000000,,2013-05-28 08:11:00,
2013-05-28 01:21:00,41.0,40.0,-100.00,SW,216,8.0,14.0,95,0.00,,,-99.99,1.000000,,2013-05-28 08:21:00,
2013-05-28 01:52:00,40.0,39.0,-100.00,SW,216,9.0,16.0,96,0.00,,,0.13,1.000000,,2013-05-28 08:52:00,
2013-05-28 02:01:00,40.0,39.0,-100.00,SW,216,9.0,16.0,96,0.00,,,0.13,1.000000,,2013-05-28 09:01:00,
2013-05-28 02:11:00,40.0,39.0,-100.00,SW,216,9.0,16.0,96,0.00,,,0.13,1.000000,,2013-05-28 09:11:00,
2013-05-28 02:21:00,40.0,39.0,-100.00,SW,216,9.0,16.0,96,0.00,,,0.13,1.000000,,2013-05-28 09:21:00,
2013-05-28 02:54:00,39.0,38.0,-100.00,SW,220,9.0,15.0,97,0.00,,,0.13,1.000000,,2013-05-28 09:54:00,
2013-05-28 03:03:00,39.0,38.0,-100.00,SW,220,9.0,15.0,97,0.00,,,0.13,1.000000,,2013-05-28 10:03:00,
2013-05-28 03:12:00,39.0,38.0,-100.00,SW,220,9.0,15.0,97,0.00,,,0.13,1.000000,,2013-05-28 10:12:00,
2013-05-28 03:22:00,39.0,38.0,-100.00,SW,220,9.0,15.0,97,0.00,,,0.13,1.000000,,2013-05-28 10:22:00,
2013-05-28 03:53:00,40.0,37.0,-100.00,SW,215,9.0,17.0,89,0.00,,,0.13,1.000000,,2013-05-28 10:53:00,
2013-05-28 04:02:00,40.0,37.0,-100.00,SW,215,9.0,17.0,89,0.00,,,0.13,1.000000,,2013-05-28 11:02:00,
2013-05-28 04:11:00,40.0,37.0,-100.00,SW,215,9.0,17.0,89,0.00,,,0.13,1.000000,,2013-05-28 11:11:00,
2013-05-28 04:22:00,40.0,37.0,-100.00,SW,215,9.0,17.0,89,0.00,,,0.13,1.000000,,2013-05-28 11:22:00,
2013-05-28 04:52:00,39.0,36.0,-100.00,SW,217,9.0,18.0,89,0.00,,,0.13,1.000000,,2013-05-28 11:52:00,
2013-05-28 05:01:00,39.0,36.0,-100.00,SW,217,9.0,18.0,89,0.00,,,0.13,1.000000,,2013-05-28 12:01:00,
2013-05-28 05:11:00,39.0,36.0,-100.00,SW,217,9.0,18.0,89,0.00,,,0.13,1.000000,,2013-05-28 12:11:00,
2013-05-28 05:21:00,39.0,36.0,-100.00,SW,217,9.0,18.0,89,0.00,,,0.13,1.000000,,2013-05-28 12:21:00,
2013-05-28 05:42:00,38.0,36.0,-100.00,SW,218,9.0,14.0,92,0.00,,,-99.99,1.000000,,2013-05-28 12:42:00,
2013-05-28 05:52:00,38.0,36.0,-100.00,SW,218,9.0,14.0,92,0.00,,,-99.99,1.000000,,2013-05-28 12:52:00,
2013-05-28 06:01:00,38.0,36.0,-100.00,SW,218,9.0,14.0,92,0.00,,,-99.99,1.000000,,2013-05-28 13:01:00,
2013-05-28 06:11:00,38.0,36.0,-100.00,SW,218,9.0,14.0,92,0.00,,,-99.99,1.000000,,2013-05-28 13:11:00,
2013-05-28 06:21:00,38.0,36.0,-100.00,SW,218,9.0,14.0,92,0.00,,,-99.99,1.000000,,2013-05-28 13:21:00,
2013-05-28 06:42:00,40.0,37.0,-100.00,SW,217,9.0,16.0,88,0.00,,,0.13,42.000000,,2013-05-28 13:42:00,
2013-05-28 06:52:00,40.0,37.0,-100.00,SW,217,9.0,16.0,88,0.00,,,0.13,42.000000,,2013-05-28 13:52:00,
2013-05-28 07:01:00,40.0,37.0,-100.00,SW,217,9.0,16.0,88,0.00,,,0.13,42.000000,,2013-05-28 14:01:00,
2013-05-28 07:11:00,40.0,37.0,-100.00,SW,217,9.0,16.0,88,0.00,,,0.13,42.000000,,2013-05-28 14:11:00,
2013-05-28 07:21:00,40.0,37.0,-100.00,SW,217,9.0,16.0,88,0.00,,,0.13,42.000000,,2013-05-28 14:21:00,
2013-05-28 07:42:00,42.0,39.0,-100.00,SSW,210,7.0,15.0,89,0.00,,,0.11,163.000000,,2013-05-28 14:42:00,
2013-05-28 07:52:00,42.0,39.0,-100.00,SSW,210,7.0,15.0,89,0.00,,,0.11,163.000000,,2013-05-28 14:52:00,
2013-05-28 08:01:00,42.0,39.0,-100.00,SSW,210,7.0,15.0,89,0.00,,,0.11,163.000000,,2013-05-28 15:01:00,
2013-05-28 08:11:00,42.0,39.0,-100.00,SSW,210,7.0,15.0,89,0.00,,,0.11,163.000000,,2013-05-28 15:11:00,
2013-05-28 08:21:00,42.0,39.0,-100.00,SSW,210,7.0,15.0,89,0.00,,,0.11,163.000000,,2013-05-28 15:21:00,
2013-05-28 08:53:00,45.0,37.0,-100.00,SW,219,10.0,21.0,74,0.00,,,0.08,368.000000,,2013-05-28 15:53:00,
2013-05-28 09:03:00,45.0,37.0,-100.00,SW,219,10.0,21.0,74,0.00,,,0.08,368.000000,,2013-05-28 16:03:00,
2013-05-28 09:12:00,45.0,37.0,-100.00,SW,219,10.0,21.0,74,0.00,,,0.08,368.000000,,2013-05-28 16:12:00,
2013-05-28 09:22:00,45.0,37.0,-100.00,SW,219,10.0,21.0,74,0.00,,,0.08,368.000000,,2013-05-28 16:22:00,
2013-05-28 09:52:00,45.0,37.0,-100.00,SW,225,6.0,22.0,74,0.00,,,0.05,288.000000,,2013-05-28 16:52:00,
2013-05-28 10:02:00,45.0,37.0,-100.00,SW,225,6.0,22.0,74,0.00,,,0.05,288.000000,,2013-05-28 17:02:00,
2013-05-28 10:12:00,45.0,37.0,-100.00,SW,225,6.0,22.0,74,0.00,,,0.05,288.000000,,2013-05-28 17:12:00,
2013-05-28 10:22:00,45.0,37.0,-100.00,SW,225,6.0,22.0,74,0.00,,,0.05,288.000000,,2013-05-28 17:22:00,
2013-05-28 10:52:00,50.0,38.0,-100.00,SW,236,7.0,18.0,62,0.00,,,0.04,602.000000,,2013-05-28 17:52:00,
2013-05-28 11:01:00,50.0,38.0,-100.00,SW,236,7.0,18.0,62,0.00,,,0.04,602.000000,,2013-05-28 18:01:00,
2013-05-28 11:11:00,50.0,38.0,-100.00,SW,236,7.0,18.0,62,0.00,,,0.04,602.000000,,2013-05-28 18:11:00,
2013-05-28 11:21:00,50.0,38.0,-100.00,SW,236,7.0,18.0,62,0.00,,,0.04,602.000000,,2013-05-28 18:21:00,
2013-05-28 11:52:00,53.0,37.0,-100.00,SW,236,10.0,18.0,54,0.00,,,0.02,693.000000,,2013-05-28 18:52:00,
2013-05-28 12:01:00,53.0,37.0,-100.00,SW,236,10.0,18.0,54,0.00,,,0.02,693.000000,,2013-05-28 19:01:00,
2013-05-28 12:11:00,53.0,37.0,-100.00,SW,236,10.0,18.0,54,0.00,,,0.02,693.000000,,2013-05-28 19:11:00,
2013-05-28 12:21:00,53.0,37.0,-100.00,SW,236,10.0,18.0,54,0.00,,,0.02,693.000000,,2013-05-28 19:21:00,
2013-05-28 12:52:00,56.0,38.0,-100.00,SW,234,7.0,16.0,50,0.00,,,0.02,941.000000,,2013-05-28 19:52:00,
2013-05-28 13:01:00,56.0,38.0,-100.00,SW,234,7.0,16.0,50,0.00,,,0.02,941.000000,,2013-05-28 20:01:00,
2013-05-28 13:11:00,56.0,38.0,-100.00,SW,234,7.0,16.0,50,0.00,,,0.02,941.000000,,2013-05-28 20:11:00,
2013-05-28 13:22:00,56.0,38.0,-100.00,SW,234,7.0,16.0,50,0.00,,,0.02,941.000000,,2013-05-28 20:22:00,
2013-05-28 13:52:00,58.0,37.0,-100.00,WSW,240,8.0,18.0,45,0.00,,,0.02,946.000000,,2013-05-28 20:52:00,
2013-05-28 14:01:00,58.0,37.0,-100.00,WSW,240,8.0,18.0,45,0.00,,,0.02,946.000000,,2013-05-28 21:01:00,
2013-05-28 14:11:00,58.0,37.0,-100.00,WSW,240,8.0,18.0,45,0.00,,,0.02,946.000000,,2013-05-28 21:11:00,
2013-05-28 14:21:00,58.0,37.0,-100.00,WSW,240,8.0,18.0,45,0.00,,,0.02,946.000000,,2013-05-28 21:21:00,
2013-05-28 14:53:00,60.0,36.0,-100.00,SW,232,7.0,20.0,41,0.00,,,0.02,965.000000,,2013-05-28 21:53:00,
2013-05-28 15:02:00,60.0,36.0,-100.00,SW,232,7.0,20.0,41,0.00,,,0.02,965.000000,,2013-05-28 22:02:00,
2013-05-28 15:12:00,60.0,36.0,-100.00,SW,232,7.0,20.0,41,0.00,,,0.02,965.000000,,2013-05-28 22:12:00,
2013-05-28 15:22:00,60.0,36.0,-100.00,SW,232,7.0,20.0,41,0.00,,,0.02,965.000000,,2013-05-28 22:22:00,
2013-05-28 15:52:00,59.0,34.0,-100.00,SW,225,8.0,18.0,39,0.00,,,0.00,922.000000,,2013-05-28 22:52:00,
2013-05-28 16:02:00,59.0,34.0,-100.00,SW,225,8.0,18.0,39,0.00,,,0.00,922.000000,,2013-05-28 23:02:00,
2013-05-28 16:11:00,59.0,34.0,-100.00,SW,225,8.0,18.0,39,0.00,,,0.00,922.000000,,2013-05-28 23:11:00,
2013-05-28 16:21:00,59.0,34.0,-100.00,SW,225,8.0,18.0,39,0.00,,,0.00,922.000000,,2013-05-28 23:21:00,
2013-05-28 16:52:00,62.0,34.0,-100.00,SW,234,7.0,15.0,35,0.00,,,0.00,799.000000,,2013-05-28 23:52:00,
2013-05-28 17:02:00,62.0,34.0,-100.00,SW,234,7.0,15.0,35,0.00,,,0.00,799.000000,,2013-05-29 00:02:00,
2013-05-28 17:11:00,62.0,34.0,-100.00,SW,234,7.0,15.0,35,0.00,,,0.00,799.000000,,2013-05-29 00:11:00,
2013-05-28 17:21:00,62.0,34.0,-100.00,SW,234,7.0,15.0,35,0.00,,,0.00,799.000000,,2013-05-29 00:21:00,
2013-05-28 17:52:00,62.0,33.0,-100.00,WSW,241,6.0,12.0,34,0.00,,,0.00,642.000000,,2013-05-29 00:52:00,
2013-05-28 18:01:00,62.0,33.0,-100.00,WSW,241,6.0,12.0,34,0.00,,,0.00,642.000000,,2013-05-29 01:01:00,
2013-05-28 18:11:00,62.0,33.0,-100.00,WSW,241,6.0,12.0,34,0.00,,,0.00,642.000000,,2013-05-29 01:11:00,
2013-05-28 18:21:00,62.0,33.0,-100.00,WSW,241,6.0,12.0,34,0.00,,,0.00,642.000000,,2013-05-29 01:21:00,
2013-05-28 18:42:00,59.0,33.0,-100.00,SW,233,6.0,10.0,38,0.00,,,0.00,424.000000,,2013-05-29 01:42:00,
2013-05-28 18:52:00,59.0,33.0,-100.00,SW,233,6.0,10.0,38,0.00,,,0.00,424.000000,,2013-05-29 01:52:00,
2013-05-28 19:02:00,59.0,33.0,-100.00,SW,233,6.0,10.0,38,0.00,,,0.00,424.000000,,2013-05-29 02:02:00,
2013-05-28 19:12:00,59.0,33.0,-100.00,SW,233,6.0,10.0,38,0.00,,,0.00,424.000000,,2013-05-29 02:12:00,
2013-05-28 19:21:00,59.0,33.0,-100.00,SW,233,6.0,10.0,38,0.00,,,0.00,424.000000,,2013-05-29 02:21:00,
2013-05-28 19:52:00,54.0,33.0,-100.00,SW,235,4.0,13.0,45,0.00,,,0.00,226.000000,,2013-05-29 02:52:00,
2013-05-28 20:01:00,54.0,33.0,-100.00,SW,235,4.0,13.0,45,0.00,,,0.00,226.000000,,2013-05-29 03:01:00,
2013-05-28 20:11:00,54.0,33.0,-100.00,SW,235,4.0,13.0,45,0.00,,,0.00,226.000000,,2013-05-29 03:11:00,
2013-05-28 20:21:00,54.0,33.0,-100.00,SW,235,4.0,13.0,45,0.00,,,0.00,226.000000,,2013-05-29 03:21:00,
2013-05-28 20:53:00,51.0,35.0,-100.00,SW,225,4.0,11.0,54,0.00,,,0.00,40.000000,,2013-05-29 03:53:00,
2013-05-28 21:02:00,51.0,35.0,-100.00,SW,225,4.0,11.0,54,0.00,,,0.00,40.000000,,2013-05-29 04:02:00,
2013-05-28 21:12:00,51.0,35.0,-100.00,SW,225,4.0,11.0,54,0.00,,,0.00,40.000000,,2013-05-29 04:12:00,
2013-05-28 21:23:00,51.0,35.0,-100.00,SW,225,4.0,11.0,54,0.00,,,0.00,40.000000,,2013-05-29 04:23:00,
2013-05-28 21:52:00,49.0,35.0,-100.00,SW,222,3.0,7.0,59,0.00,,,0.00,2.000000,,2013-05-29 04:52:00,
2013-05-28 22:02:00,49.0,35.0,-100.00,SW,222,3.0,7.0,59,0.00,,,0.00,2.000000,,2013-05-29 05:02:00,
2013-05-28 22:12:00,49.0,35.0,-100.00,SW,222,3.0,7.0,59,0.00,,,0.00,2.000000,,2013-05-29 05:12:00,
2013-05-28 22:22:00,49.0,35.0,-100.00,SW,222,3.0,7.0,59,0.00,,,0.00,2.000000,,2013-05-29 05:22:00,
2013-05-28 22:42:00,49.0,36.0,-100.00,SSW,203,3.0,6.0,61,0.00,,,0.00,1.000000,,2013-05-29 05:42:00,
2013-05-28 22:52:00,49.0,36.0,-100.00,SSW,203,3.0,6.0,61,0.00,,,0.00,1.000000,,2013-05-29 05:52:00,
2013-05-28 23:01:00,49.0,36.0,-100.00,SSW,203,3.0,6.0,61,0.00,,,0.00,1.000000,,2013-05-29 06:01:00,
2013-05-28 23:11:00,49.0,36.0,-100.00,SSW,203,3.0,6.0,61,0.00,,,0.00,1.000000,,2013-05-29 06:11:00,
2013-05-28 23:21:00,49.0,36.0,-100.00,SSW,203,3.0,6.0,61,0.00,,,0.00,1.000000,,2013-05-29 06:21:00,
2013-05-28 23:42:00,47.0,39.0,-100.00,SW,222,6.0,10.0,73,0.00,,,0.00,1.000000,,2013-05-29 06:42:00,
2013-05-28 23:52:00,47.0,39.0,-100.00,SW,222,6.0,10.0,73,0.00,,,0.00,1.000000,,2013-05-29 06:52:00,